Vertical_Velocity
-6 -2 0 -9 -3 -1 -2 -2 0 -2 -4 -5 -4 -5 -2 -2 -4 -3 -2 -4 -3 -2 -2 -0 -1 -2 -4
0 -3 -3 -2 -5 -6 -5 -1 -8 1 -1 -2 -1 -3 -0 -5 -4 -2 -3 -1 -3 -3 -2 -1 -0 2 -2
0 -2 -3 -5 -3 -2 -6 -4 -5 -4 -1 -3 -1 -4 -2 -1 -4 -1 0 -2 -3 -4 -2 -0 -2 -1 1
-4 -5 -9 3 -6 -22 1 2 -4 2 1 -0 1 -4 -0 -3 0 1 2 -2 -2 -2 -2 -1 -2 -2 0
-2 -4 -2 -3 -11 -1 -12 -12 10 -9 -19 15 2 -5 6 4 0 5 1 -0 3 1 1 -0 -3 -4 -3
-3 -7 -1 -7 -5 -10 -12 -12 -26 43 -23 7 -3 4 -0 3 3 0 2 3 1 3 3 2 0 -3 -8
-7 -2 -5 -7 -2 -6 2 -5 -4 8 -20 -26 0 -7 0 1 3 3 2 3 3 2 1 2 0 -0 -3
-3 -3 -4 -2 -8 -14 -16 -16 12 12 -5 -37 7 -0 -1 4 7 -2 1 3 6 6 3 3 1 -1 -4
1 -1 0 1 -5 -14 0 -9 -20 14 17 -23 10 -10 -11 1 -0 1 -2 -2 -3 -1 0 -1 0 1 -2
7 6 3 8 9 -0 -7 -16 -4 -24 43 -24 -0 -4 -21 4 -9 0 -6 -1 -4 -2 -2 -5 -0 -2 -4
-2 1 1 2 4 2 3 -8 -14 -4 8 -6 -2 -2 5 -29 -2 0 -0 2 -3 -2 3 2 4 3 1
-7 1 -2 -1 5 1 3 5 5 -7 -3 4 -12 -1 -5 -6 -32 17 12 3 1 3 1 0 0 1 1
-8 -2 -1 -2 -3 -8 7 -0 3 5 7 5 3 -2 -0 -3 -19 -4 -26 16 9 4 6 -0 1 2 -1
-7 -5 -2 1 -2 -7 -8 -9 -10 -1 19 6 5 6 -11 4 -0 -8 10 -15 6 11 -3 1 1 -2 -0
-6 -8 0 -2 -2 -2 1 -5 -7 -13 -11 2 9 5 2 8 -11 10 -4 -1 3 0 -0 1 0 -1 -3
-7 -11 -2 -6 -7 0 -1 -1 -7 -3 -5 -1 -5 -7 15 41 9 -4 3 -2 5 5 6 1 -0 1 -4
-8 -4 -4 -1 -6 -5 -3 -1 -2 -4 1 1 -6 -5 -10 -38 6 32 -6 6 1 6 4 6 2 2 -4
Height
3026 3021 3015 3008 3002 2994 2986 2979 2972 2964 2958 2949 2940 2933 2927 2921 2915 2910 2906 2903 2900 2898 2897 2895 2893 2892 2892
3018 3012 3006 2999 2990 2982 2976 2969 2960 2953 2946 2937 2927 2921 2913 2905 2899 2894 2890 2888 2885 2885 2883 2881 2881 2880 2879
3008 3003 2996 2987 2979 2973 2965 2957 2948 2939 2935 2925 2915 2907 2899 2892 2885 2880 2877 2874 2872 2870 2868 2867 2868 2868 2867
2999 2993 2986 2979 2969 2961 2953 2945 2934 2928 2922 2911 2901 2894 2887 2880 2874 2869 2865 2862 2859 2857 2855 2853 2853 2854 2854
2991 2984 2976 2969 2960 2951 2940 2932 2924 2915 2908 2897 2887 2881 2875 2869 2863 2858 2854 2850 2848 2845 2841 2839 2839 2840 2840
2981 2974 2966 2959 2950 2941 2931 2921 2907 2906 2892 2886 2876 2868 2862 2856 2851 2845 2841 2838 2835 2831 2827 2824 2822 2823 2826
2972 2966 2957 2952 2942 2932 2923 2910 2897 2889 2881 2868 2864 2853 2849 2843 2838 2832 2827 2823 2819 2815 2811 2808 2806 2805 2807
2968 2960 2952 2943 2932 2921 2912 2900 2891 2879 2871 2850 2849 2839 2835 2830 2823 2818 2815 2809 2803 2798 2792 2786 2782 2780 2781
2960 2952 2943 2933 2924 2913 2904 2887 2876 2868 2863 2841 2836 2822 2818 2813 2808 2806 2798 2789 2781 2773 2766 2761 2757 2756 2754
2952 2943 2933 2924 2916 2904 2892 2878 2865 2853 2856 2834 2824 2814 2793 2795 2792 2788 2778 2772 2762 2754 2747 2743 2740 2736 2735
2938 2929 2921 2913 2906 2895 2883 2870 2857 2847 2844 2827 2815 2805 2794 2774 2777 2772 2762 2751 2744 2740 2736 2729 2725 2721 2718
2929 2922 2913 2904 2896 2884 2874 2862 2852 2841 2833 2825 2808 2797 2783 2771 2760 2755 2747 2739 2732 2727 2721 2718 2714 2710 2707
2921 2913 2903 2893 2883 2874 2865 2855 2846 2839 2828 2819 2803 2789 2781 2766 2748 2743 2732 2731 2726 2719 2713 2708 2704 2701 2698
2912 2903 2894 2883 2875 2865 2853 2843 2833 2828 2822 2812 2797 2784 2772 2762 2745 2733 2728 2717 2715 2711 2704 2701 2698 2696 2695
2903 2895 2885 2875 2865 2854 2844 2834 2825 2813 2804 2800 2790 2777 2766 2748 2737 2730 2718 2711 2707 2701 2697 2694 2693 2694 2694
2896 2887 2876 2865 2854 2846 2838 2829 2816 2807 2796 2786 2772 2760 2751 2745 2733 2717 2710 2699 2694 2690 2686 2687 2689 2692 2696
2887 2878 2869 2858 2847 2839 2831 2822 2810 2800 2792 2782 2770 2756 2736 2724 2722 2718 2699 2691 2682 2678 2676 2680 2687 2691 2699